Wind_Speed
29 29 30 28 27 29 30 30 30 26 27 27 29 31 34 36 38 41 43 46 48 50 53 55 58 60 63 65 68 70 72 74 75 76 77 77 76 76 75 75 74 73 71 70
29 30 30 29 28 29 29 30 31 30 29 31 32 35 37 40 42 45 47 50 52 55 58 60 63 65 68 71 73 75 77 78 79 79 79 78 77 76 75 74 72 71 70 69
31 30 31 30 29 29 30 30 31 31 32 34 36 38 41 43 46 49 52 54 57 60 62 65 68 71 73 76 78 80 81 81 81 80 79 78 76 75 73 72 70 69 68 67
34 32 31 30 29 30 30 31 32 33 35 37 39 42 44 47 50 53 56 59 62 64 67 70 72 75 77 80 81 82 83 82 81 80 78 76 74 72 70 69 67 66 65 64
36 33 30 29 31 31 32 33 34 36 38 40 43 45 48 51 54 57 60 63 66 69 72 74 77 79 81 82 83 83 82 81 80 78 75 73 70 68 67 65 64 63 61 60
35 35 32 32 32 33 35 36 37 39 41 44 47 50 52 55 58 60 63 67 70 73 76 78 80 82 83 83 83 82 81 79 76 73 70 68 66 64 63 61 60 59 58 57
35 36 35 35 35 36 37 39 41 42 45 48 51 54 57 60 63 66 69 72 74 77 79 81 82 83 83 83 82 80 78 74 70 67 65 63 62 60 58 57 56 55 54 53
36 37 38 38 38 39 40 42 44 47 49 52 55 58 61 64 67 69 72 74 76 78 80 81 82 82 82 80 79 76 72 68 65 63 61 60 59 57 56 55 54 53 51 50
36 38 40 39 40 42 43 46 48 51 54 57 59 62 64 67 70 72 74 76 78 80 81 80 80 80 79 77 74 70 67 64 61 59 58 57 56 55 53 52 52 50 48 47
38 39 41 42 43 45 47 50 52 55 58 60 63 66 68 70 72 74 75 77 79 80 80 79 77 76 74 72 69 66 63 60 58 57 54 53 52 52 50 49 48 47 46 44
40 40 42 44 46 48 50 53 56 58 61 64 67 69 70 72 73 75 76 78 79 79 78 77 75 71 69 67 65 62 59 57 56 54 52 50 49 49 47 46 46 44 43 42
41 42 44 46 48 50 53 56 58 61 64 66 68 70 71 73 74 76 77 78 78 77 75 73 70 67 65 63 61 59 56 54 52 50 48 47 46 44 44 44 43 43 42 43
43 44 46 49 51 54 56 59 62 64 66 68 69 70 72 74 75 76 76 76 75 73 71 68 65 63 61 59 57 55 54 51 49 48 47 46 44 43 40 39 40 41 42 43
46 48 50 52 55 57 60 62 64 66 67 68 70 71 73 74 75 75 74 73 71 69 66 64 61 59 58 56 54 53 51 49 48 47 45 43 42 41 41 40 39 39 40 41
49 51 53 56 59 61 62 63 64 66 67 69 70 72 73 74 73 72 70 69 67 64 62 60 58 56 55 53 52 51 48 47 45 44 43 42 41 41 41 40 40 39 38 39
53 55 57 59 60 61 62 64 65 67 68 70 71 72 72 72 71 68 67 65 63 60 58 56 55 53 52 51 50 48 45 44 44 43 42 41 40 40 39 39 39 39 38 38
55 57 58 59 60 61 63 65 66 68 69 70 71 72 71 69 67 65 63 61 58 56 55 54 52 50 49 49 48 45 43 42 42 42 41 40 39 38 38 39 38 37 37 36
56 57 58 59 61 62 63 65 67 68 69 70 70 69 67 65 64 62 59 56 54 52 52 51 50 48 47 47 45 43 42 41 41 40 39 38 37 37 38 37 36 35 34 33
56 57 58 60 62 63 65 66 67 68 68 68 67 65 63 62 61 59 56 53 52 50 48 47 47 46 45 44 43 42 41 40 39 39 38 36 35 36 36 35 34 33 32 31
56 58 59 61 63 65 66 67 67 66 65 65 64 62 60 59 57 55 53 50 50 48 46 45 45 44 42 41 41 40 39 38 38 37 35 34 34 34 34 33 32 32 31 30
57 59 60 62 64 64 65 65 65 63 62 62 61 59 57 54 53 52 49 46 45 45 44 44 43 42 41 40 39 38 37 36 35 35 33 33 32 32 32 31 31 30 30 29
59 60 62 63 64 64 63 63 63 62 60 58 57 55 53 51 49 47 46 45 43 43 42 42 41 40 39 38 36 35 34 34 33 32 32 31 31 31 30 30 29 29 28 28
60 61 62 63 63 63 61 61 60 59 58 56 54 52 50 48 46 45 42 42 42 41 40 40 39 37 36 35 34 33 33 32 31 31 30 30 30 29 29 28 28 27 28 29
59 60 61 62 62 62 60 59 58 57 55 53 51 49 47 45 43 42 42 41 41 40 39 38 37 35 34 33 32 32 31 31 30 29 29 29 28 28 28 27 27 27 28 28
59 60 60 61 61 60 59 57 55 53 51 48 46 45 44 43 41 40 40 40 39 38 38 37 36 34 33 32 31 30 29 29 29 28 28 27 27 27 26 26 26 27 27 26
58 59 59 59 59 58 56 54 51 48 46 43 41 41 40 40 40 40 39 38 38 37 37 36 34 32 31 30 30 29 28 28 27 27 27 26 26 26 25 25 25 25 25 24
57 57 57 56 55 54 51 49 46 43 42 41 39 38 38 38 38 38 38 38 37 36 35 34 32 31 29 29 28 27 27 26 26 26 26 25 25 24 23 23 23 22 22 23
Wind_Direction
277 278 280 282 283 283 285 287 288 290 289 290 293 295 296 297 298 299 300 302 303 304 304 304 304 303 303 303 303 302 302 301 301 300 300 299 297 296 295 293 291 289 287 285
276 277 279 280 280 280 282 284 286 289 291 292 294 295 295 296 298 300 302 303 303 304 304 304 304 304 304 304 303 303 303 302 302 301 301 300 298 297 295 293 291 289 287 285
275 276 277 279 279 278 279 281 285 289 292 293 294 294 296 298 300 301 302 303 303 304 304 305 305 305 305 305 304 304 304 304 303 302 301 300 299 297 295 293 291 289 287 285
276 276 276 278 277 278 280 283 287 290 292 293 295 296 298 300 301 302 303 304 305 305 305 306 306 305 305 306 306 305 305 305 304 303 302 301 299 297 295 292 290 289 287 286
277 277 275 277 279 280 283 286 289 291 293 294 295 297 300 301 302 303 304 305 305 306 306 306 306 306 307 307 307 307 306 306 305 304 302 301 299 297 295 293 292 291 290 288
276 277 278 278 279 282 285 288 289 291 293 295 297 298 300 301 302 303 304 305 306 307 307 307 307 307 308 308 308 308 307 307 306 305 303 301 299 298 296 295 294 293 291 290
275 277 279 281 283 286 288 291 292 294 295 296 298 300 301 303 305 306 307 307 307 307 308 308 308 308 309 309 309 309 309 308 307 305 303 302 301 300 299 298 296 295 294 293
274 277 280 282 285 288 290 291 293 294 296 298 300 302 303 305 306 306 307 307 307 308 309 309 309 309 309 310 310 310 309 308 307 306 304 303 302 301 301 300 298 297 295 294
273 276 280 284 287 290 292 293 295 297 299 300 302 303 304 305 306 306 306 307 308 308 309 310 310 310 311 311 311 311 310 309 308 307 306 304 304 303 302 302 301 300 298 296
273 277 281 285 289 291 292 295 297 299 301 302 303 304 305 305 305 306 307 308 308 309 310 310 311 312 312 312 311 311 310 310 309 307 306 305 305 304 304 304 303 302 300 298
275 280 283 287 290 292 294 297 299 300 301 302 302 303 304 304 305 306 307 308 309 310 311 312 312 312 312 311 311 311 311 311 310 309 307 306 306 306 306 305 305 304 302 300
278 282 285 288 290 292 294 296 298 299 299 300 301 302 303 305 306 307 308 309 310 311 312 312 312 313 312 312 312 312 312 312 311 310 308 308 307 307 307 307 306 305 304 303
281 283 286 288 291 293 294 296 297 298 299 300 302 303 304 306 307 308 309 310 311 312 312 312 312 313 313 312 312 313 314 313 312 311 310 310 309 309 308 307 307 307 306 305
282 285 288 290 292 294 296 297 298 299 300 301 303 304 306 307 308 309 310 310 311 311 311 312 313 313 313 313 313 314 314 313 313 314 313 312 312 311 310 309 308 307 306 305
284 287 290 292 294 295 297 298 298 299 301 302 304 305 306 307 309 309 310 310 311 311 311 312 313 313 313 313 314 315 314 314 314 315 315 314 313 313 312 312 311 310 308 307
288 290 292 294 295 296 297 298 299 300 302 303 304 305 306 307 308 309 309 310 311 311 311 312 312 313 313 314 315 316 315 315 315 316 316 315 315 314 314 314 314 313 312 310
290 292 293 294 295 296 297 299 300 301 302 303 304 305 306 307 307 308 309 309 310 311 311 312 313 314 314 315 316 316 316 316 316 316 317 316 316 316 317 317 317 316 316 316
291 292 293 294 295 296 298 299 300 301 302 303 304 305 306 306 307 308 308 309 308 309 310 311 312 313 314 314 315 316 316 317 317 317 317 317 317 318 319 320 320 320 320 320
291 292 293 295 296 297 299 300 301 302 303 303 304 305 305 305 306 307 308 308 307 308 309 309 311 312 314 314 315 315 316 317 317 318 318 318 318 319 321 321 322 323 323 323
291 292 294 295 297 298 299 300 301 302 303 303 303 304 305 305 305 306 307 307 307 308 309 310 311 312 313 314 315 315 316 316 317 319 319 319 319 321 322 323 324 324 325 325
292 293 295 296 297 298 300 301 301 302 303 303 303 304 304 305 305 306 306 306 307 308 309 310 311 312 313 314 315 315 316 317 318 319 320 320 321 322 323 324 325 326 326 327
293 294 296 297 298 299 300 301 301 302 303 303 303 303 303 304 305 305 305 306 307 308 309 311 311 312 313 314 315 316 317 318 319 320 320 321 322 324 325 326 327 328 329 330
294 295 296 297 298 299 300 301 301 302 302 302 302 302 303 303 304 304 304 305 306 308 309 311 311 312 313 314 315 317 318 319 320 321 321 322 323 325 327 328 329 330 331 332
295 296 297 298 298 299 300 301 301 301 302 301 301 301 301 302 302 303 305 306 307 309 310 311 312 312 313 314 315 317 318 319 321 322 323 323 324 326 327 328 330 332 333 335
295 296 297 298 299 299 300 301 300 300 300 300 299 299 299 300 301 303 304 305 306 308 309 310 311 311 312 313 315 316 317 319 320 322 323 324 325 326 327 329 331 333 335 337
296 296 297 298 298 299 300 300 300 299 298 298 297 297 297 298 300 302 303 304 306 307 309 309 310 310 311 312 314 315 317 318 321 322 324 324 325 326 328 330 332 335 337 340
295 296 297 297 298 299 299 299 299 298 297 297 296 296 296 297 298 299 301 303 304 306 307 308 308 309 310 310 312 314 315 318 321 322 324 325 326 328 331 333 336 339 342 345
Height
5764 5762 5760 5759 5758 5755 5752 5750 5748 5748 5746 5744 5740 5736 5732 5728 5723 5719 5713 5708 5702 5696 5690 5684 5677 5670 5663 5656 5647 5639 5631 5622 5613 5604 5595 5586 5577 5569 5560 5552 5545 5538 5531 5525
5755 5754 5751 5751 5750 5747 5745 5742 5740 5739 5737 5734 5731 5727 5723 5718 5713 5708 5702 5696 5690 5684 5677 5670 5663 5655 5647 5639 5630 5620 5611 5602 5592 5583 5573 5564 5555 5546 5538 5530 5522 5515 5508 5502
5746 5745 5743 5743 5741 5739 5737 5735 5733 5731 5729 5725 5721 5717 5712 5707 5702 5696 5690 5684 5677 5670 5662 5655 5647 5638 5630 5620 5611 5601 5590 5580 5570 5560 5551 5542 5532 5523 5514 5507 5499 5492 5486 5480
5736 5737 5736 5736 5733 5730 5728 5727 5725 5722 5719 5715 5711 5706 5701 5695 5689 5683 5677 5670 5662 5655 5647 5639 5630 5620 5611 5601 5590 5580 5569 5559 5548 5538 5529 5519 5510 5501 5492 5485 5477 5471 5465 5459
5726 5725 5726 5726 5723 5721 5719 5718 5716 5712 5708 5704 5699 5694 5690 5683 5676 5670 5663 5655 5647 5639 5630 5621 5611 5601 5592 5581 5570 5559 5548 5538 5527 5516 5506 5498 5489 5480 5471 5464 5458 5451 5445 5440
5717 5715 5716 5717 5714 5712 5710 5708 5706 5701 5697 5692 5687 5683 5679 5671 5664 5657 5649 5640 5631 5622 5612 5602 5592 5581 5571 5561 5549 5539 5528 5517 5506 5495 5485 5477 5469 5460 5452 5445 5439 5433 5428 5422
5707 5704 5706 5706 5704 5702 5701 5698 5693 5689 5684 5680 5674 5669 5663 5655 5647 5639 5631 5622 5613 5603 5593 5582 5572 5561 5551 5540 5529 5518 5507 5497 5487 5476 5466 5458 5450 5442 5434 5428 5422 5416 5411 5406
5697 5695 5697 5694 5693 5691 5689 5684 5680 5676 5671 5666 5660 5654 5647 5639 5631 5623 5614 5605 5596 5586 5576 5564 5552 5541 5531 5521 5510 5500 5489 5480 5470 5460 5450 5441 5433 5426 5419 5412 5406 5400 5395 5390
5689 5688 5685 5683 5681 5678 5675 5671 5667 5662 5657 5651 5645 5638 5631 5624 5615 5606 5597 5588 5578 5568 5559 5547 5533 5521 5510 5501 5491 5481 5472 5463 5453 5444 5435 5426 5418 5411 5404 5398 5391 5385 5380 5375
5678 5676 5674 5671 5669 5665 5661 5657 5652 5647 5642 5636 5629 5622 5615 5607 5598 5589 5580 5570 5560 5550 5540 5530 5518 5505 5492 5482 5473 5464 5456 5447 5438 5429 5421 5413 5405 5397 5390 5384 5378 5372 5366 5362
5667 5665 5663 5660 5656 5653 5648 5644 5638 5633 5627 5620 5614 5607 5599 5591 5582 5572 5563 5553 5542 5531 5521 5511 5500 5490 5478 5466 5457 5449 5441 5432 5424 5415 5407 5400 5393 5385 5378 5372 5364 5359 5354 5349
5657 5655 5652 5649 5645 5641 5637 5632 5626 5621 5614 5606 5599 5591 5583 5574 5565 5555 5545 5534 5524 5514 5503 5493 5483 5474 5463 5453 5443 5434 5427 5419 5410 5402 5395 5387 5381 5375 5368 5360 5354 5347 5342 5337
5645 5642 5639 5636 5632 5628 5623 5618 5612 5605 5598 5591 5582 5574 5565 5557 5547 5537 5526 5516 5506 5497 5486 5477 5468 5459 5449 5440 5431 5422 5414 5406 5398 5390 5383 5376 5369 5363 5358 5352 5345 5338 5332 5326
5632 5629 5626 5622 5618 5613 5607 5602 5595 5588 5580 5573 5564 5556 5547 5539 5529 5519 5509 5499 5490 5481 5471 5462 5454 5445 5436 5427 5419 5411 5402 5394 5386 5379 5372 5365 5358 5352 5346 5340 5336 5330 5323 5316
5618 5615 5612 5607 5602 5597 5591 5585 5578 5571 5564 5556 5547 5539 5530 5521 5512 5503 5493 5484 5475 5466 5457 5448 5441 5432 5423 5415 5408 5400 5392 5384 5377 5370 5363 5356 5349 5342 5336 5330 5324 5318 5313 5306
5604 5600 5596 5591 5586 5580 5574 5568 5561 5554 5547 5539 5531 5522 5513 5504 5496 5487 5478 5468 5460 5452 5444 5436 5428 5420 5412 5404 5397 5389 5382 5374 5367 5360 5354 5347 5340 5333 5327 5321 5314 5308 5302 5296
5589 5585 5580 5575 5570 5564 5558 5551 5544 5537 5529 5521 5513 5505 5497 5488 5480 5472 5464 5456 5447 5439 5431 5423 5416 5409 5401 5393 5386 5379 5373 5366 5359 5352 5345 5338 5331 5325 5319 5312 5305 5299 5293 5286
5573 5569 5564 5559 5554 5548 5542 5534 5527 5520 5512 5504 5496 5488 5480 5472 5464 5457 5451 5443 5436 5428 5420 5412 5405 5399 5391 5384 5377 5370 5364 5357 5350 5344 5337 5330 5324 5318 5311 5304 5298 5291 5285 5279
5557 5553 5548 5542 5536 5531 5524 5518 5510 5503 5495 5486 5479 5472 5465 5457 5449 5443 5436 5429 5422 5416 5410 5403 5396 5389 5382 5375 5368 5362 5355 5349 5342 5336 5329 5323 5317 5311 5304 5297 5291 5285 5279 5273
5541 5536 5531 5526 5520 5513 5507 5500 5493 5486 5478 5470 5463 5457 5451 5444 5436 5429 5424 5417 5410 5403 5398 5392 5385 5379 5373 5367 5360 5354 5347 5341 5335 5328 5322 5316 5310 5304 5298 5291 5285 5279 5273 5267
5525 5520 5515 5509 5504 5497 5490 5482 5475 5469 5463 5455 5447 5441 5435 5430 5423 5416 5410 5406 5400 5393 5387 5381 5375 5369 5364 5358 5352 5345 5339 5333 5327 5321 5316 5310 5304 5298 5292 5286 5280 5274 5268 5262
5508 5503 5497 5491 5485 5480 5474 5466 5458 5452 5446 5440 5433 5426 5421 5416 5410 5405 5399 5393 5388 5383 5377 5372 5366 5360 5355 5349 5343 5338 5332 5326 5321 5315 5309 5304 5298 5292 5287 5281 5275 5269 5263 5258
5491 5485 5479 5473 5467 5462 5457 5450 5443 5436 5430 5424 5418 5412 5407 5403 5397 5392 5388 5383 5378 5373 5367 5362 5357 5351 5346 5341 5336 5331 5325 5320 5314 5309 5304 5298 5293 5287 5282 5276 5270 5265 5259 5253
5473 5468 5462 5456 5450 5445 5440 5435 5428 5421 5415 5410 5404 5399 5394 5390 5386 5381 5376 5372 5367 5362 5358 5353 5348 5343 5338 5333 5329 5324 5319 5314 5309 5304 5298 5293 5288 5282 5277 5271 5266 5261 5255 5249
5457 5451 5445 5439 5434 5428 5423 5418 5413 5407 5401 5397 5392 5386 5381 5377 5374 5371 5366 5362 5357 5353 5349 5344 5340 5335 5331 5326 5322 5317 5312 5308 5303 5298 5293 5288 5283 5278 5273 5267 5262 5257 5251 5246
5441 5435 5430 5424 5417 5412 5407 5402 5397 5393 5388 5384 5380 5375 5371 5367 5363 5359 5356 5352 5348 5344 5340 5336 5331 5327 5323 5319 5315 5311 5307 5302 5298 5293 5288 5283 5278 5273 5268 5263 5259 5253 5248 5243
5426 5420 5414 5409 5403 5397 5392 5387 5383 5379 5375 5371 5368 5365 5361 5357 5353 5350 5346 5343 5339 5335 5331 5327 5324 5320 5316 5313 5309 5305 5301 5297 5293 5288 5283 5279 5274 5269 5265 5260 5256 5251 5246 5241